TimeEST,TemperatureF,Dew PointF,Humidity,Sea Level PressureIn,VisibilityMPH,Wind Direction,Wind SpeedMPH,Gust SpeedMPH,PrecipitationIn,Events,Conditions,WindDirDegrees,DateUTC
12:15 AM,30.2,21.2,69,30.38,10.0,Calm,Calm,-,N/A,,Clear,0,2013-02-18 05:15:00
12:35 AM,28.4,21.2,74,30.38,10.0,Calm,Calm,-,N/A,,Clear,0,2013-02-18 05:35:00
12:55 AM,28.4,21.2,74,30.38,10.0,Calm,Calm,-,N/A,,Clear,0,2013-02-18 05:55:00
1:15 AM,28.4,21.2,74,30.38,10.0,Calm,Calm,-,N/A,,Clear,0,2013-02-18 06:15:00
1:35 AM,28.4,21.2,74,30.38,10.0,Calm,Calm,-,N/A,,Clear,0,2013-02-18 06:35:00
1:55 AM,28.4,21.2,74,30.37,10.0,Calm,Calm,-,N/A,,Clear,0,2013-02-18 06:55:00
2:15 AM,28.4,21.2,74,30.37,10.0,Calm,Calm,-,N/A,,Clear,0,2013-02-18 07:15:00
2:35 AM,28.4,21.2,74,30.37,10.0,Calm,Calm,-,N/A,,Clear,0,2013-02-18 07:35:00
2:55 AM,26.6,21.2,80,30.36,10.0,Calm,Calm,-,N/A,,Clear,0,2013-02-18 07:55:00
3:15 AM,26.6,21.2,80,30.36,10.0,Calm,Calm,-,N/A,,Clear,0,2013-02-18 08:15:00
3:35 AM,26.6,21.2,80,30.36,10.0,Calm,Calm,-,N/A,,Clear,0,2013-02-18 08:35:00
3:55 AM,26.6,21.2,80,30.36,10.0,Calm,Calm,-,N/A,,Clear,0,2013-02-18 08:55:00
4:15 AM,26.6,23.0,86,30.35,10.0,Calm,Calm,-,N/A,,Clear,0,2013-02-18 09:15:00
4:35 AM,26.6,21.2,80,30.36,10.0,Calm,Calm,-,N/A,,Clear,0,2013-02-18 09:35:00
4:55 AM,26.6,21.2,80,30.36,10.0,Calm,Calm,-,N/A,,Clear,0,2013-02-18 09:55:00
5:15 AM,26.6,21.2,80,30.36,10.0,Calm,Calm,-,N/A,,Clear,0,2013-02-18 10:15:00
5:35 AM,26.6,21.2,80,30.37,10.0,Calm,Calm,-,N/A,,Clear,0,2013-02-18 10:35:00
5:55 AM,24.8,21.2,86,30.37,10.0,North,3.5,-,N/A,,Clear,10,2013-02-18 10:55:00
6:15 AM,24.8,19.4,80,30.37,10.0,North,4.6,-,N/A,,Clear,10,2013-02-18 11:15:00
6:35 AM,24.8,21.2,86,30.37,10.0,Calm,Calm,-,N/A,,Clear,0,2013-02-18 11:35:00
6:50 AM,24.8,21.2,86,30.37,10.0,Calm,Calm,-,N/A,,Clear,0,2013-02-18 11:50:00
6:55 AM,24.8,19.4,80,30.38,10.0,North,3.5,-,N/A,,Clear,10,2013-02-18 11:55:00
7:50 AM,26.6,21.2,80,30.39,10.0,Calm,Calm,-,N/A,,Clear,0,2013-02-18 12:50:00
8:50 AM,42.8,26.6,53,30.39,10.0,Calm,Calm,-,N/A,,Clear,0,2013-02-18 13:50:00
9:50 AM,50.0,17.6,28,30.41,10.0,ENE,8.1,-,N/A,,Clear,70,2013-02-18 14:50:00
10:50 AM,53.6,19.4,26,30.41,10.0,ENE,5.8,-,N/A,,Clear,70,2013-02-18 15:50:00
11:50 AM,57.2,23.0,27,30.39,10.0,East,6.9,-,N/A,,Clear,100,2013-02-18 16:50:00
12:50 PM,60.8,28.4,29,30.35,10.0,SSE,6.9,-,N/A,,Clear,150,2013-02-18 17:50:00
1:50 PM,64.4,30.2,28,30.32,10.0,SE,6.9,-,N/A,,Clear,140,2013-02-18 18:50:00
3:50 PM,66.2,33.8,30,30.28,10.0,South,9.2,-,N/A,,Clear,170,2013-02-18 20:50:00
4:50 PM,64.4,33.8,32,30.28,10.0,SSE,6.9,-,N/A,,Clear,150,2013-02-18 21:50:00
7:55 PM,59.0,41.0,51,30.28,10.0,East,3.5,-,N/A,,Overcast,100,2013-02-19 00:55:00
8:15 PM,57.2,41.0,55,30.28,10.0,East,5.8,-,N/A,,Mostly Cloudy,90,2013-02-19 01:15:00
8:35 PM,57.2,41.0,55,30.27,10.0,ESE,3.5,-,N/A,,Partly Cloudy,110,2013-02-19 01:35:00
8:55 PM,55.4,42.8,63,30.27,10.0,ESE,4.6,-,N/A,,Clear,110,2013-02-19 01:55:00
9:15 PM,55.4,42.8,63,30.26,10.0,ESE,3.5,-,N/A,,Clear,120,2013-02-19 02:15:00
9:35 PM,55.4,42.8,63,30.26,10.0,Calm,Calm,-,N/A,,Clear,0,2013-02-19 02:35:00
9:55 PM,53.6,42.8,67,30.26,10.0,East,4.6,-,N/A,,Clear,100,2013-02-19 02:55:00
10:15 PM,53.6,42.8,67,30.26,10.0,Calm,Calm,-,N/A,,Clear,0,2013-02-19 03:15:00
10:35 PM,53.6,42.8,67,30.25,10.0,ESE,3.5,-,N/A,,Clear,120,2013-02-19 03:35:00
10:55 PM,53.6,42.8,67,30.25,10.0,Calm,Calm,-,N/A,,Clear,0,2013-02-19 03:55:00
11:15 PM,50.0,42.8,76,30.25,10.0,Calm,Calm,-,N/A,,Clear,0,2013-02-19 04:15:00
11:35 PM,50.0,42.8,76,30.25,10.0,Calm,Calm,-,N/A,,Clear,0,2013-02-19 04:35:00
11:55 PM,46.4,39.2,76,30.26,10.0,North,4.6,-,N/A,,Clear,360,2013-02-19 04:55:00